Weather History for KCKI - November, 2012

Change the Weather History Date:

Thursday, November 15, 2012

  Actual Average (KFLO) Record (KFLO)
Temperature  
Mean Temperature 46 °F 56 °F  
Max Temperature 51 °F 67 °F 86 °F (1993)
Min Temperature 42 °F 44 °F 24 °F (1969)
Degree Days  
Heating Degree Days 18 10  
Month to date heating degree days 123  
Since 1 July heating degree days 240  
Cooling Degree Days 0 1  
Month to date cooling degree days 15  
Year to date cooling degree days 2057  
Moisture  
Dew Point 45 °F    
Average Humidity 96    
Maximum Humidity 100    
Minimum Humidity 76    
Precipitation  
Precipitation 0.45 in 0.08 in 1.30 in (1986)
Month to date precipitation 1.30  
Year to date precipitation 38.53  
Sea Level Pressure  
Sea Level Pressure 30.24 in    
Wind  
Wind Speed 6 mph (NNW)    
Max Wind Speed 16 mph    
Max Gust Speed 22 mph    
Visibility 7 miles    
Events Rain , Thunderstorm    
T = Trace of Precipitation, MM = Missing Value Source: NWS Daily Summary

Daily Weather History Graph

Daily Weather History Graph

Search for Another Location

Airport or City:

Trip Planner

Search our weather history database for the weather conditions in past years. The results will help you decide how hot, cold, wet, or windy it might be!

Date:

Astronomy

Nov. 15, 2012 Rise Set
Actual Time 6:51 AM EST 5:16 PM EST
Civil Twilight 6:25 AM EST 5:42 PM EST
Nautical Twilight 5:55 AM EST 6:12 PM EST
Astronomical Twilight 5:25 AM EST 6:42 PM EST
Moon 8:42 AM EST (11/15) 7:08 PM EST (11/15)
Length of Visible Light 11h 17m
Length of Day
10h 24m
Waxing Crescent, 5% of the Moon is Illuminated
Nov 15
Waxing Crescent
Nov 20
First Quarter
Nov 28
Full
Dec 6
Last Quarter
Dec 13
New

Hourly Weather History & Observations

Time (EST) Temp. Windchill Dew Point Humidity Pressure Visibility Wind Dir Wind Speed Gust Speed Precip Events Conditions
12:15 AM 51.8 °F - 44.6 °F 76% 30.29 in 10.0 mi NNE 3.5 mph - N/A   Clear
12:35 AM 51.8 °F - 44.6 °F 76% 30.27 in 10.0 mi NNE 3.5 mph - N/A   Clear
1:15 AM 51.8 °F - 44.6 °F 76% 30.26 in 10.0 mi NE 3.5 mph - N/A   Clear
1:35 AM 51.8 °F - 44.6 °F 76% 30.26 in 10.0 mi NNE 4.6 mph - N/A   Clear
1:55 AM 51.8 °F - 44.6 °F 76% 30.25 in 10.0 mi NNE 4.6 mph - N/A   Clear
2:15 AM 50.0 °F - 44.6 °F 82% 30.25 in 10.0 mi NNE 6.9 mph - N/A   Clear
2:35 AM 50.0 °F - 44.6 °F 82% 30.24 in 10.0 mi NNE 9.2 mph - N/A Rain Light Rain
2:55 AM 50.0 °F - 44.6 °F 82% 30.24 in 10.0 mi North 6.9 mph - N/A Rain Light Rain
3:15 AM 50.0 °F - 44.6 °F 82% 30.23 in 10.0 mi NNE 8.1 mph - N/A   Clear
3:35 AM 50.0 °F - 44.6 °F 82% 30.22 in 10.0 mi North 4.6 mph - N/A   Light Drizzle
3:55 AM 48.2 °F - 44.6 °F 87% 30.22 in 10.0 mi North 4.6 mph - N/A   Light Drizzle
4:15 AM 48.2 °F - 44.6 °F 87% 30.22 in 10.0 mi North 3.5 mph - N/A   Light Drizzle
4:35 AM 48.2 °F - 42.8 °F 82% 30.21 in 10.0 mi North 5.8 mph - N/A   Clear
4:55 AM 46.4 °F 41.1 °F 44.6 °F 93% 30.21 in 7.0 mi NNE 11.5 mph - N/A   Drizzle
5:15 AM 46.4 °F 42.9 °F 44.6 °F 93% 30.20 in 5.0 mi North 6.9 mph - N/A   Drizzle
5:35 AM 46.4 °F 41.1 °F 46.4 °F 100% 30.25 in 7.0 mi West 11.5 mph - N/A   Clear
5:55 AM 44.6 °F 39.2 °F 44.6 °F 100% 30.27 in 4.0 mi WNW 10.4 mph 17.3 mph 0.01 in Rain , Thunderstorm Rain
6:15 AM 44.6 °F 38.8 °F 44.6 °F 100% 30.26 in 4.0 mi NW 11.5 mph - 0.02 in Rain Heavy Rain
6:35 AM 44.6 °F 41.4 °F 44.6 °F 100% 30.26 in 7.0 mi NW 5.8 mph 18.4 mph 0.02 in   Drizzle
6:55 AM 44.6 °F 40.7 °F 44.6 °F 100% 30.26 in 7.0 mi North 6.9 mph - 0.03 in   Drizzle
7:15 AM 44.6 °F 38.4 °F 44.6 °F 100% 30.28 in 7.0 mi WNW 12.7 mph 18.4 mph 0.02 in Rain , Thunderstorm Rain
7:35 AM 42.8 °F 36.6 °F 42.8 °F 100% 30.29 in 7.0 mi NNW 11.5 mph 20.7 mph 0.02 in Rain Light Rain
7:55 AM 42.8 °F 37.0 °F 42.8 °F 100% 30.30 in 5.0 mi NW 10.4 mph - 0.04 in Rain Rain
8:15 AM 42.8 °F 35.1 °F 42.8 °F 100% 30.33 in 7.0 mi West 16.1 mph 21.9 mph 0.01 in Rain Rain
8:35 AM 42.8 °F 35.8 °F 42.8 °F 100% 30.28 in 0.8 mi NE 13.8 mph 19.6 mph 0.14 in   Unknown
8:55 AM 44.6 °F 43.1 °F 44.6 °F 100% 30.28 in 4.0 mi North 3.5 mph - 0.21 in Rain Rain
9:15 AM 44.6 °F 40.7 °F 44.6 °F 100% 30.29 in 5.0 mi NNW 6.9 mph - 0.03 in Rain Rain
9:55 AM 44.6 °F 38.8 °F 44.6 °F 100% 30.25 in 5.0 mi NNE 11.5 mph 18.4 mph 0.13 in Rain Heavy Rain
10:15 AM 44.6 °F 40.2 °F 44.6 °F 100% 30.23 in 7.0 mi NE 8.1 mph - 0.02 in Rain Light Rain
10:35 AM 44.6 °F 41.4 °F 44.6 °F 100% 30.24 in 10.0 mi NE 5.8 mph - 0.02 in   Clear
11:15 AM 48.2 °F - 48.2 °F 100% 30.24 in 10.0 mi NNE 5.8 mph - N/A   Clear
11:35 AM 48.2 °F - 48.2 °F 100% 30.25 in 10.0 mi North 3.5 mph - N/A   Clear
11:55 AM 50.0 °F - 50.0 °F 100% 30.25 in 10.0 mi Calm Calm - N/A Rain Light Rain
12:15 PM 50.0 °F - 50.0 °F 100% 30.22 in 10.0 mi NNW 5.8 mph - N/A Rain Light Rain
12:35 PM 50.0 °F - 50.0 °F 100% 30.22 in 10.0 mi NW 9.2 mph - 0.01 in Rain Rain
12:55 PM 50.0 °F - 50.0 °F 100% 30.22 in 10.0 mi NW 9.2 mph - 0.01 in Rain Light Rain
1:15 PM 50.0 °F - 50.0 °F 100% 30.22 in 10.0 mi NW 6.9 mph - N/A   Clear
1:35 PM 48.2 °F - 48.2 °F 100% 30.22 in 10.0 mi NW 9.2 mph - N/A   Clear
1:55 PM 46.4 °F 41.9 °F 46.4 °F 100% 30.22 in 7.0 mi NW 9.2 mph - N/A   Clear
2:15 PM 46.4 °F 41.5 °F 46.4 °F 100% 30.23 in 7.0 mi NW 10.4 mph - N/A   Clear
2:35 PM 46.4 °F 42.9 °F 46.4 °F 100% 30.23 in 7.0 mi NW 6.9 mph - N/A   Clear
2:55 PM 44.6 °F 40.2 °F 44.6 °F 100% 30.23 in 7.0 mi NW 8.1 mph - N/A   Clear
3:15 PM 44.6 °F 40.2 °F 44.6 °F 100% 30.23 in 5.0 mi NW 8.1 mph - N/A   Clear
3:35 PM 44.6 °F 39.7 °F 44.6 °F 100% 30.23 in 5.0 mi NNW 9.2 mph - N/A   Clear
3:55 PM 44.6 °F 40.2 °F 44.6 °F 100% 30.22 in 5.0 mi NW 8.1 mph - N/A   Clear
4:15 PM 44.6 °F 40.2 °F 44.6 °F 100% 30.22 in 5.0 mi NNW 8.1 mph - N/A   Clear
4:35 PM 44.6 °F 40.2 °F 44.6 °F 100% 30.22 in 5.0 mi NW 8.1 mph - N/A   Clear
4:55 PM 44.6 °F 40.7 °F 44.6 °F 100% 30.23 in 5.0 mi NW 6.9 mph - N/A   Clear
5:15 PM 44.6 °F 42.2 °F 44.6 °F 100% 30.23 in 7.0 mi North 4.6 mph - N/A   Clear
5:35 PM 44.6 °F 41.4 °F 44.6 °F 100% 30.23 in 7.0 mi North 5.8 mph - N/A   Clear
5:55 PM 44.6 °F 43.1 °F 44.6 °F 100% 30.23 in 5.0 mi North 3.5 mph - N/A   Clear
6:15 PM 44.6 °F 42.2 °F 44.6 °F 100% 30.24 in 2.0 mi North 4.6 mph - N/A   Clear
6:35 PM 44.6 °F 41.4 °F 44.6 °F 100% 30.24 in 1.8 mi North 5.8 mph - N/A   Mist
6:55 PM 44.6 °F 42.2 °F 44.6 °F 100% 30.24 in 2.5 mi North 4.6 mph - N/A   Clear
7:15 PM 44.6 °F 43.1 °F 44.6 °F 100% 30.24 in 4.0 mi NW 3.5 mph - N/A   Clear
7:35 PM 44.6 °F 43.1 °F 44.6 °F 100% 30.24 in 4.0 mi NNW 3.5 mph - N/A   Clear
7:55 PM 44.6 °F 42.2 °F 44.6 °F 100% 30.25 in 5.0 mi NW 4.6 mph - N/A   Clear
8:35 PM 46.4 °F 45.2 °F 46.4 °F 100% 30.25 in 5.0 mi NW 3.5 mph - N/A   Clear
9:15 PM 46.4 °F 42.4 °F 46.4 °F 100% 30.25 in 5.0 mi NW 8.1 mph - N/A   Clear
9:35 PM 46.4 °F 44.3 °F 46.4 °F 100% 30.25 in 5.0 mi NNW 4.6 mph - N/A   Clear
9:55 PM 46.4 °F 42.9 °F 46.4 °F 100% 30.26 in 5.0 mi NNW 6.9 mph - N/A   Clear
10:15 PM 46.4 °F 44.3 °F 46.4 °F 100% 30.25 in 7.0 mi North 4.6 mph - N/A   Clear
10:35 PM 46.4 °F 44.3 °F 46.4 °F 100% 30.25 in 7.0 mi NNW 4.6 mph - N/A   Clear
10:55 PM 46.4 °F 44.3 °F 46.4 °F 100% 30.25 in 7.0 mi NNW 4.6 mph - N/A   Clear
11:15 PM 46.4 °F 44.3 °F 46.4 °F 100% 30.25 in 7.0 mi North 4.6 mph - N/A   Clear
11:35 PM 46.4 °F 45.2 °F 46.4 °F 100% 30.24 in 7.0 mi North 3.5 mph - N/A   Clear
11:55 PM 46.4 °F 45.2 °F 46.4 °F 100% 30.24 in 7.0 mi NNW 3.5 mph - N/A   Clear